Regional Weather Roundup
Issued by NWS New Orleans/Baton Rouge, LA

Home | Current Version | Previous Version | Graphics & Text | Print | Product List | Glossary On
Versions: 1 2 3 4 5 6 7 8 9 10 11 12 13 14 15 16 17 18 19 20 21 22 23 24 25 26 27 28 29 30 31 32 33 34 35 36 37 38 39 40 41 42 43 44 45 46 47 48 49 50
375
ASUS44 KLIX 182205
RWRLIX
NEW ORLEANS REGIONAL WEATHER ROUNDUP
NATIONAL WEATHER SERVICE NEW ORLEANS LA
500 PM CDT FRI APR 18 2014

NOTE: "FAIR" INDICATES FEW OR NO CLOUDS BELOW 12,000 FEET WITH NO
      SIGNIFICANT WEATHER AND/OR OBSTRUCTIONS TO VISIBILITY.
      SKY/WX - SKY CONDITION AND SIGNIFICANT WEATHER.
      TMP - AIR TEMPERATURE.     DP    - DEWPOINT TEMPERATURE.
      RH  - RELATIVE HUMIDITY.   PRES  - PRESSURE.
      HI  - HEAT INDEX.          WCI   - WIND CHILL INDEX.

*  THESE STATIONS ARE NOT NWS OR FAA STATIONS AND ARE NOT UNDER
   NWS QUALITY CONTROL.

LAZ038-040-048-061>063-065>067-069-182300-
SOUTHEAST LOUISIANA

CITY           SKY/WX    TMP DP  RH WIND       PRES   REMARKS
N.O. AUDUBON     N/A     73  57  56 MISG        N/A
N.O. INTL ARPT MOSUNNY   73  58  59 NE14      30.06S
N.O. LAKEFRONT PTSUNNY   70  60  70 NE8       30.07R
N.O. DOWNTOWN*   N/A     72  54  53 N12G17    30.07R
SLIDELL        CLOUDY    68  56  65 NE13      30.06R
BATON ROUGE    TSTM      72  60  66 NW5       30.06S
BOOTHVILLE     CLOUDY    67  60  78 N9        30.04S
BELLE CHASSE   PTSUNNY   71  56  58 NE10G16   30.05R
BOGALUSA*        N/A     71  55  57 NE12G17   30.09S
GALLIANO*      PTCLDY    74  58  58 N13       30.05R
NEW ROADS*       N/A     74  59  59 N9        30.07S
GONZALES*        N/A     75  57  53 N7        30.05R
HAMMOND*       CLOUDY    73  54  49 NE7       30.09R
HOUMA*         MOSUNNY   75  55  50 NE12      30.04S
PORT FOURCHON* CLEAR     72  59  64 NE15      30.06S

$$

MSZ070-080>082-182300-
SOUTHERN MISSISSIPPI

CITY           SKY/WX    TMP DP  RH WIND       PRES   REMARKS
MCCOMB         MOSUNNY   74  54  49 NE9       30.08S
GULFPORT       CLOUDY    66  56  70 N14       30.05R
BILOXI         CLOUDY    63  57  82 N13G22    30.05S
PASCAGOULA     CLOUDY    61  56  83 N12       30.04S
STENNIS ARPT*    N/A     63  55  77 N13G20    30.08R

$$

COASTAL OBSERVATIONS
LAKE AND NEARSHORE STATIONS

STATION/POSITION TIME  TEMP    WIND        PRES    WAVE
                       AIR SEA DIR/SP/G            HT/PER
                 (UTC) (F)     (DEG/KT/KT) (MB)    (FT/S)
PASCAGOULA       2200   62      10/ 15/ 23 1016.5
WAVELAND YACHT   2200   62 68   10/ 18/ 22 1017.3
GRAND ISLE       2200   69 68   30/ 14/ 17 1017.7
SOUTHWEST PASS   2200   66 58   10/ 13/ 16 1017.3
NEW CANAL        2200   67 65   40/  9/  9 1018.4
SHELL BEACH      2200   66 63   20/ 16/ 18 1017.4

OFFSHORE STATIONS

STATION/POSITION TIME  TEMP    WIND        PRES    WAVE
                       AIR SEA DIR/SP/G            HT/PER
                 (UTC) (F)     (DEG/KT/KT) (MB)    (FT/S)
64 S DAUPHIN ISL 2142   65 71  360/ 23/ 29 1015.3

$$




USA.gov is the U.S. government's official web portal to all federal, state and local government web resources and services.